#timestamp,LO_Frequency,Hit,StdDev 
1702119615.0,286047000.7,N
1702119615.9,286047000.7,N
1702119635.8,286046999.0,N
1702119655.6,286046998.8,N
1702119675.5,286046996.7,N
1702119695.3,286046997.1,N
1702119715.1,286046997.5,N
1702119735.9,286046997.4,N
1702119755.7,286046997.3,N
1702119775.5,286046997.3,N
1702119795.4,286046997.0,N
1702119815.2,286046997.6,N
1702119835.1,286046994.9,Y
1702119836.0,286046994.9,P
1702119855.8,286046999.5,N
1702119875.6,286046999.3,N
1702119895.5,286046996.8,N
1702119915.3,286046999.3,N
1702119935.2,286046999.0,N
1702119955.9,286046998.9,N
1702119975.7,286046997.0,N
1702119995.6,286046997.0,N
1702120015.4,286046999.6,N
1702120035.2,286046996.6,N
1702120055.1,286046999.4,N
1702120056.0,286046999.4,N
1702120075.8,286046998.9,N
1702120095.7,286046999.4,N
1702120115.5,286046998.3,N
1702120135.3,286046999.3,N
1702120155.2,286046999.0,N
1702120175.0,286046999.3,N
1702120175.9,286046999.3,N
1702120195.8,286046996.9,N
1702120215.6,286046996.8,N
1702120235.4,286046999.0,N
1702120255.3,286046998.8,N
1702120275.1,286046999.3,N
1702120295.9,286046998.4,N
1702120315.7,286046999.2,N
1702120335.5,286046997.1,N
1702120355.4,286046997.3,N
1702120375.2,286046996.8,N
1702120395.0,286046998.8,N
1702120395.9,286046998.8,N
1702120415.8,286046996.5,Y
1702120435.6,286047000.3,P
1702120455.5,286046999.9,N
1702120475.3,286046999.7,N
1702120495.1,286047000.0,N
1702120515.9,286047000.7,N
1702120535.7,286047002.3,Y
1702120555.5,286047000.2,P
1702120575.4,286047002.4,P
1702120595.2,286046999.8,N
1702120615.1,286047000.7,N
1702120616.0,286047000.7,N
1702120635.8,286047001.3,N
1702120655.6,286047000.4,N
1702120675.5,286046999.7,N
1702120695.3,286047002.5,Y
1702120715.2,286047001.6,P
1702120735.9,286047001.7,P
1702120755.7,286047002.6,P
1702120775.6,286047000.3,N
1702120795.4,286047001.1,N
1702120815.2,286046998.7,N
1702120835.1,286046998.5,N
1702120836.0,286046998.5,N
1702120855.8,286047000.6,N
1702120875.7,286046999.9,N
1702120895.5,286047000.5,N
1702120915.3,286047000.4,N
1702120935.2,286047000.6,N
1702120955.0,286047000.4,N
1702120955.9,286047000.4,N
1702120975.8,286047001.0,N
1702120995.6,286046999.9,N
1702121015.4,286047002.7,N
1702121035.3,286047001.9,N
1702121055.1,286047003.5,Y
1702121075.8,286047003.9,P
1702121095.7,286047001.8,N
1702121115.5,286046999.8,N
1702121135.4,286047002.0,N
1702121155.2,286047002.5,N
1702121175.0,286047000.5,N
1702121175.9,286047000.5,N
1702121195.8,286047000.2,N
1702121215.6,286046998.2,N
1702121235.4,286046998.8,N
1702121255.3,286047000.7,N
1702121275.1,286047001.0,N
1702121295.9,286047000.8,N
1702121315.7,286046998.1,N
1702121335.5,286047000.0,N
1702121355.4,286047002.1,N
1702121375.2,286047002.9,N
1702121395.0,286047002.8,N
1702121395.9,286047002.8,N
1702121415.8,286047001.6,N
1702121435.6,286047002.7,N
1702121455.5,286046999.9,N
1702121475.3,286046998.2,N
1702121495.1,286047001.0,N
1702121515.9,286047000.7,N
1702121535.7,286046998.4,N
1702121555.5,286046998.3,N
1702121575.4,286046999.3,N
1702121595.2,286046998.1,N
1702121615.1,286046998.5,N
1702121616.0,286046998.5,N
1702121635.8,286046999.0,N
1702121655.6,286047001.2,N
1702121675.5,286047000.5,N
1702121695.3,286046998.1,N
1702121715.1,286047000.2,N
1702121735.9,286046999.8,N
1702121755.7,286047001.9,N
1702121775.6,286047002.4,N
1702121795.4,286047001.9,N
1702121815.2,286047001.4,N
1702121835.1,286047002.7,N
1702121836.0,286047002.7,N
1702121855.8,286047001.4,N
1702121875.6,286047001.9,N
1702121895.5,286047002.5,N
1702121915.3,286047002.8,N
1702121935.2,286046998.1,N
1702121955.9,286047000.6,N
1702121975.7,286047002.4,N
1702121995.6,286047002.1,N
1702122015.4,286047002.2,N
1702122035.2,286047002.7,N
1702122055.1,286046999.7,N
1702122056.0,286046999.7,N
1702122075.8,286047000.2,N
1702122095.7,286047000.7,N
1702122115.5,286047000.3,N
1702122135.3,286047002.6,N
1702122155.2,286047001.5,N
1702122175.0,286047001.5,N
1702122175.9,286047001.5,N
1702122195.8,286047000.1,N
1702122215.6,286046998.2,N
1702122235.4,286047000.4,N
1702122255.3,286047000.4,N
1702122275.1,286047001.2,N
1702122295.8,286047000.5,N
1702122315.7,286047002.7,N
1702122335.5,286047001.0,N
1702122355.4,286047001.2,N
1702122375.2,286047000.5,N
1702122395.0,286047000.8,N
1702122395.9,286047000.8,N
1702122415.8,286047001.1,N
1702122435.6,286047001.1,N
1702122455.4,286047002.4,N
1702122475.3,286047002.4,N
1702122495.1,286047002.3,N
1702122515.9,286047002.7,N
1702122535.7,286046999.7,N
1702122555.5,286047000.6,N
1702122575.4,286047001.2,N
1702122595.2,286046999.0,N
1702122615.0,286046999.4,N
1702122615.9,286046999.4,N
1702122635.8,286046998.6,N
1702122655.6,286047000.3,N
1702122675.5,286047001.0,N
1702122695.3,286047000.8,N
1702122715.1,286047000.1,N
1702122735.9,286047001.1,N
1702122755.7,286047000.7,N
1702122775.5,286047000.3,N
1702122795.4,286047001.2,N
1702122815.2,286046998.8,N
1702122835.1,286047001.1,N
1702122836.0,286047001.1,N
1702122855.8,286047000.6,N
1702122875.6,286047000.4,N
1702122895.5,286047001.1,N
1702122915.3,286046998.1,N
1702122935.1,286046998.1,N
1702122955.9,286046999.2,N
1702122975.7,286046998.6,N
1702122995.6,286046998.6,N
1702123015.4,286046998.4,N
1702123035.2,286046999.0,N
1702123055.1,286046998.4,N
1702123056.0,286046998.4,N
1702123075.8,286047001.1,N
1702123095.7,286046998.1,N
1702123115.5,286046998.3,N
1702123135.3,286046999.3,N
1702123155.2,286046999.0,N
1702123175.9,286047000.7,N
1702123195.7,286046998.2,N
